Location: *
(43.0833°N, 13.0500°E)
Time: 11:18:36
(UTC+00:00)

Lacrosse 4 Rocket - Pass Details

Date: 15 November 2019
Orbit: 543 x 616 km, 68.0° (Epoch: 06 December)

Event Time Altitude Azimuth Distance (km) Brightness Sun altitude
Rises 18:20:14 0° 241° (WSW) 2,716 5.7 -28.4°
Reaches altitude 10° 18:22:48 10° 256° (WSW) 1,818 4.8 -28.9°
Maximum altitude 18:26:04 23° 310° (NW) 1,192 3.5 -29.5°
Enters shadow 18:26:19 23° 316° (NW) 1,197 3.4 -29.5°
